This demonstration page uses our WeatherBlox Daily Observations layout. Learn more.

Left ArrowRight Arrow

39.51506, -84.39828

Hourly Observations for July 3, 2022

Temp ( °F °C ) Dew Point ( °F °C ) Humidity (%) Winds ( mph kmh ) Pressure ( in mb ) Visibility ( mi km ) Precip ( " mm )
12:15 am 00:15 Clear 73 22.9 57 14 57 57 Calm 30.04 1017 10 16 0.00 0.00
12:35 am 00:35 Clear 71 21.5 61 16.2 72 72 Calm 30.05 1018 10 16 0.00 0.00
12:55 am 00:55 Clear 70 21.2 62 16.6 75 75 Calm 30.05 1018 10 16 0.00 0.00
1:15 am 01:15 Clear 71 21.4 62 16.6 74 74 Calm 30.05 1018 10 16 0.00 0.00
1:35 am 01:35 Partly Cloudy 70 20.9 62 16.7 77 77 N 3 6 30.05 1018 10 16 0.00 0.00
1:55 am 01:55 Mostly Cloudy with Light Rain 71 21.6 62 16.9 75 75 Calm 30.05 1018 10 16 0.00 0.00
2:15 am 02:15 Mostly Cloudy 69 20.4 65 18.2 87 87 N 3 6 30.05 1018 10 16 0.00 0.00
2:35 am 02:35 Cloudy 70 21 60 15.8 72 72 N 6 9 30.05 1018 10 16 0.00 0.00
2:55 am 02:55 Cloudy 70 21.2 61 16.1 73 73 N 3 6 30.04 1017 10 16 0.00 0.00
3:15 am 03:15 Mostly Cloudy 71 21.8 59 15.1 66 66 NNE 5 7 30.03 1017 10 16 0.00 0.00
3:35 am 03:35 Mostly Cloudy 72 22 59 14.8 64 64 N 5 7 30.03 1017 10 16 0.00 0.00
3:55 am 03:55 Mostly Cloudy 71 21.9 58 14.4 63 63 N 6 9 30.04 1017 10 16 0.00 0.00
4:15 am 04:15 Partly Cloudy 71 21.9 58 14.3 62 62 N 6 9 30.04 1017 10 16 0.00 0.00
4:35 am 04:35 Partly Cloudy 71 21.7 58 14.4 63 63 NNE 3 6 30.05 1018 10 16 0.00 0.00
4:55 am 04:55 Partly Cloudy 70 21.1 59 15.1 69 69 Calm 30.06 1018 10 16 0.00 0.00
5:15 am 05:15 Partly Cloudy 69 20.8 61 16.1 75 75 Calm 30.06 1018 10 16 0.00 0.00
5:35 am 05:35 Partly Cloudy 69 20.7 60 15.5 72 72 Calm 30.06 1018 10 16 0.00 0.00
5:55 am 05:55 Partly Cloudy 68 20.1 60 15.3 74 74 N 7 11 30.07 1018 10 16 0.00 0.00
6:15 am 06:15 Clear 68 20.2 59 14.8 71 71 N 5 7 30.07 1018 10 16 0.00 0.00
6:35 am 06:35 Sunny 68 19.9 58 14.6 72 72 N 5 7 30.08 1019 10 16 0.00 0.00
6:55 am 06:55 Sunny 67 19.7 58 14.7 73 73 NNE 3 6 30.10 1019 10 16 0.00 0.00
7:15 am 07:15 Sunny 68 20.1 59 15.2 74 74 Calm 30.10 1019 10 16 0.00 0.00
7:35 am 07:35 Sunny 71 21.7 58 14.5 64 64 N 3 6 30.11 1020 10 16 0.00 0.00
7:55 am 07:55 Sunny 72 22.3 58 14.7 62 62 ENE 3 6 30.11 1020 10 16 0.00 0.00
8:15 am 08:15 Sunny 73 22.8 58 14.7 60 60 N 6 9 30.11 1020 10 16 0.00 0.00
8:35 am 08:35 Sunny 74 23.4 58 14.5 57 57 NNE 5 7 30.12 1020 10 16 0.00 0.00
8:55 am 08:55 Sunny 75 23.9 59 14.8 57 57 NE 5 7 30.12 1020 10 16 0.00 0.00
9:15 am 09:15 Sunny 76 24.7 58 14.7 54 54 NE 5 7 30.12 1020 10 16 0.00 0.00
9:35 am 09:35 Sunny 78 25.6 58 14.4 50 50 NNE 8 13 30.12 1020 10 16 0.00 0.00
9:55 am 09:55 Sunny 79 26.1 56 13.4 46 46 NE 8 13 30.12 1020 10 16 0.00 0.00
10:15 am 10:15 Sunny 80 26.6 55 12.7 42 42 NNE 6 9 30.12 1020 10 16 0.00 0.00
10:35 am 10:35 Sunny 81 27.2 53 11.9 39 39 ENE 5 7 30.12 1020 10 16 0.00 0.00
10:55 am 10:55 Sunny 82 28 52 10.9 34 34 E 7 11 30.13 1020 10 16 0.00 0.00
11:15 am 11:15 Sunny 83 28.6 53 11.5 35 35 ENE 9 15 30.12 1020 10 16 0.00 0.00
11:35 am 11:35 Sunny 84 28.7 53 11.6 35 35 SE 5 7 30.13 1020 10 16 0.00 0.00
11:55 am 11:55 Sunny 84 28.7 53 11.8 35 35 NNE 5 7 30.12 1020 10 16 0.00 0.00
12:15 pm 12:15 Sunny 85 29.2 53 11.5 33 33 N 3 6 30.12 1020 10 16 0.00 0.00
12:35 pm 12:35 Sunny 84 29 52 10.9 33 33 NE 9 15 30.12 1020 10 16 0.00 0.00
12:55 pm 12:55 Sunny 86 29.8 53 11.9 33 33 ENE 8 13 30.10 1019 10 16 0.00 0.00
1:15 pm 13:15 Sunny 85 29.7 52 11.1 32 32 E 5 7 30.10 1019 10 16 0.00 0.00
1:35 pm 13:35 Sunny 86 30.1 53 11.8 32 32 E 5 7 30.10 1019 10 16 0.00 0.00
1:55 pm 13:55 Sunny 87 30.5 53 11.9 32 32 N 5 7 30.09 1019 10 16 0.00 0.00
2:15 pm 14:15 Sunny 87 30.5 53 11.9 32 32 SE 7 11 30.09 1019 10 16 0.00 0.00
2:35 pm 14:35 Sunny 87 30.4 53 11.4 31 31 ESE 8 13 30.09 1019 10 16 0.00 0.00
2:55 pm 14:55 Sunny 88 30.9 52 10.9 29 29 SSE 3 6 30.09 1019 10 16 0.00 0.00
3:15 pm 15:15 Sunny 88 31 51 10.6 28 28 NNW 6 9 30.08 1019 10 16 0.00 0.00
3:35 pm 15:35 Sunny 87 30.8 51 10.8 29 29 NNE 6 9 30.08 1019 10 16 0.00 0.00
3:55 pm 15:55 Sunny 89 31.4 52 11 28 28 ENE 12 19 30.07 1018 10 16 0.00 0.00
4:15 pm 16:15 Sunny 88 31.2 50 10.2 27 27 NE 8 13 30.07 1018 10 16 0.00 0.00
4:35 pm 16:35 Sunny 89 31.4 51 10.6 28 28 NNE 7 11 30.06 1018 10 16 0.00 0.00
4:55 pm 16:55 Sunny 89 31.7 51 10.7 27 27 ENE 10 17 30.06 1018 10 16 0.00 0.00
5:15 pm 17:15 Sunny 89 31.6 50 10.1 26 26 ENE 6 9 30.06 1018 10 16 0.00 0.00
5:35 pm 17:35 Sunny 88 31.3 48 8.9 25 25 N 3 6 30.06 1018 10 16 0.00 0.00
5:55 pm 17:55 Sunny 88 31.1 53 11.6 30 30 NNW 7 11 30.05 1018 10 16 0.00 0.00
6:15 pm 18:15 Sunny 88 31.1 54 12.2 31 31 NE 7 11 30.05 1018 10 16 0.00 0.00
6:35 pm 18:35 Sunny 88 30.9 51 10.8 29 29 NE 6 9 30.05 1018 10 16 0.00 0.00
6:55 pm 18:55 Sunny 87 30.8 53 11.5 30 30 N 7 11 30.06 1018 10 16 0.00 0.00
7:15 pm 19:15 Sunny 87 30.7 53 11.4 30 30 ENE 7 11 30.07 1018 10 16 0.00 0.00
7:35 pm 19:35 Sunny 86 30.2 52 10.9 30 30 E 9 15 30.07 1018 10 16 0.00 0.00
7:55 pm 19:55 Sunny 86 30 52 11.1 31 31 E 7 11 30.07 1018 10 16 0.00 0.00
8:15 pm 20:15 Sunny 85 29.3 53 11.7 34 34 ENE 6 9 30.08 1019 10 16 0.00 0.00
8:35 pm 20:35 Sunny 83 28.5 53 11.7 35 35 E 6 9 30.09 1019 10 16 0.00 0.00
8:55 pm 20:55 Sunny 80 26.5 57 13.7 45 45 Calm 30.08 1019 10 16 0.00 0.00
9:15 pm 21:15 Clear 74 23.6 61 16.1 63 63 NNW 5 7 30.09 1019 10 16 0.00 0.00
9:35 pm 21:35 Clear 70 21.2 61 16.3 74 74 Calm 30.10 1019 10 16 0.00 0.00
9:55 pm 21:55 Clear 69 20.8 61 16.3 76 76 Calm 30.10 1019 10 16 0.00 0.00
10:15 pm 22:15 Clear 69 20.6 61 16.2 76 76 Calm 30.11 1020 10 16 0.00 0.00
10:35 pm 22:35 Clear 69 20.7 60 15.8 74 74 N 3 6 30.11 1020 10 16 0.00 0.00
10:55 pm 22:55 Clear 68 19.9 61 16.1 79 79 Calm 30.12 1020 10 16 0.00 0.00
11:15 pm 23:15 Clear 67 19.3 60 15.8 80 80 NNW 3 6 30.14 1021 10 16 0.00 0.00
11:35 pm 23:35 Clear 67 19.5 61 16.2 81 81 NNW 3 6 30.14 1021 10 16 0.00 0.00
11:55 pm 23:55 Clear 66 18.7 61 16.1 85 85 Calm 30.13 1020 10 16 0.00 0.00

Powered by AerisWeather